Regional Weather Roundup
Issued by NWS

Home | Current Version | Previous Version | Graphics & Text | Print | Product List | Glossary On
Versions: 1 2 3 4 5 6 7 8 9 10 11 12 13 14 15 16 17 18 19 20 21 22 23 24 25 26 27 28 29 30 31 32 33 34 35 36 37 38 39 40 41 42 43 44 45 46 47 48 49 50
000
ASUS43 KLSX 011710
RWRMO

WEATHER SUMMARY FOR MISSOURI
NATIONAL WEATHER SERVICE SPRINGFIELD MO
1200 PM CDT SUN MAY 01 2016

NOTE: "FAIR" INDICATES FEW OR NO CLOUDS BELOW 12,000 FEET WITH NO
       SIGNIFICANT WEATHER AND/OR OBSTRUCTIONS TO VISIBILITY.
       CURRENT SKY AND/OR WEATHER CONDITIONS ARE NOT AVAILABLE FOR
       CHILLICOTHE AND FARMINGTON.

MOZ001>031-035>038-043-044-053-054-011800-
...NORTHERN AND WESTERN MISSOURI...

CITY           SKY/WX    TMP DP  RH WIND       PRES   REMARKS
KANSAS CTY INT PTSUNNY   58  48  69 NW10      29.99S
KANSAS C DTWN  CLOUDY    59  45  59 NW6       29.99R
LEE`S SUMMIT   CLOUDY    59  41  51 W10       29.99S
ST JOSEPH      CLOUDY    53  49  86 N10       30.01R
CHILLICOTHE      N/A     57  52  83 N3        29.98S
KIRKSVILLE     CLOUDY    53  49  86 N7        29.97S

$$
MOZ066>068-077>081-088>096-101>105-011800-
...SOUTHWEST MISSOURI...

CITY           SKY/WX    TMP DP  RH WIND       PRES   REMARKS
SPRINGFIELD    SUNNY     64  43  46 W13G20    30.00S
JOPLIN         PTSUNNY   60  46  59 W14       30.04R
BRANSON        SUNNY     64  45  48 W9        30.01F

$$
MOZ032>034-039>042-045>050-055>058-069>072-011800-
...CENTRAL MISSOURI...

CITY           SKY/WX    TMP DP  RH WIND       PRES   REMARKS
COLUMBIA       PTSUNNY   64  49  57 W13       29.96S
JEFFERSON CITY MOSUNNY   65  49  56 W12       29.96S
ROLLA          MOSUNNY   65  51  60 W10       29.95S
SEDALIA        MOSUNNY   63  44  50 W13       29.98S
WHITEMAN AFB   PTSUNNY   61  43  53 W10       29.97S
WARRENSBURG    PTSUNNY   59  41  51 W7        29.98F
OSAGE BEACH    MOSUNNY   64  43  45 W7G17     29.98F

$$
MOZ051-052-059>065-011800-
...EAST CENTRAL MISSOURI...

CITY           SKY/WX    TMP DP  RH WIND       PRES   REMARKS
ST LOUIS INTL  CLOUDY    68  58  70 VRB5      29.95S
SPIRIT OF STL  CLOUDY    64  59  82 NW8       29.95R
ST CHARLES     CLOUDY    62  58  86 NW7       29.95R

$$
MOZ072>076-082>087-097>100-106>115-011800-
...SOUTH CENTRAL AND SOUTHEAST MISSOURI...

CITY           SKY/WX    TMP DP  RH WIND       PRES   REMARKS
CAPE GIRARDEAU PTSUNNY   74  62  66 SW7       29.93S
FARMINGTON     MOSUNNY   70  58  65 NW6       29.96R
POPLAR BLUFF   SUNNY     74  62  66 W9        29.94R
WEST PLAINS    SUNNY     68  51  54 W7        29.99S

$$




USA.gov is the U.S. government's official web portal to all federal, state and local government web resources and services.